Lid_Strength_Index
-1 -1 -1 2 7 7 9 8 6 7 7 5 4 5 6 5 6 8 3 3 1 0 -1 -1 -1 -2 -1 -1 -1 -1 -1 -1 -1 -1 -1 -1 -1 -1 -1 -1 -1 -1 -1 -1 -1 -1 -1 -1 -1
-1 -0 1 4 8 10 9 7 8 6 5 5 5 6 6 6 4 5 4 4 2 1 -0 -0 -1 -2 -2 -1 -1 -1 -1 -1 -1 -1 -1 -1 -1 -2 -2 -1 -1 -1 -1 -1 -1 -1 -1 -1 -1
-0 0 4 6 8 9 9 7 6 6 5 5 6 5 5 5 5 4 4 5 2 2 1 1 0 -0 -1 -1 -2 -0 0 -0 -0 -0 -2 -1 -0 -0 -1 -1 -1 -1 -1 -2 -2 -2 -1 -1 -1
1 2 3 7 8 7 7 6 6 6 6 6 5 7 6 4 4 3 5 5 4 3 2 2 1 1 1 0 0 0 0 -0 -0 -1 -1 0 0 0 -0 -0 -1 -1 -1 -1 -1 -1 -1 -1 -1
2 3 7 8 8 7 6 6 6 6 6 6 6 7 6 6 5 5 6 6 6 4 3 3 3 2 2 2 2 2 2 2 2 1 1 2 2 2 2 1 1 1 0 -0 -1 -2 -1 -0 -1
5 5 8 9 8 7 7 6 6 6 6 6 7 6 6 5 6 6 6 7 7 6 5 5 5 4 4 3 4 3 3 3 3 3 3 3 4 3 3 3 2 2 2 2 1 1 1 0 -0
5 6 8 8 8 8 7 6 7 6 6 7 6 7 6 7 5 6 6 7 7 7 7 6 6 6 5 5 5 5 4 4 4 5 5 5 5 5 5 5 4 3 3 3 2 2 2 2 2
5 6 8 8 8 8 7 7 6 6 6 6 5 7 6 6 6 7 7 7 7 8 8 7 7 7 7 7 6 6 6 6 6 6 7 7 6 7 7 6 6 5 4 4 4 3 3 3 3
4 7 8 8 8 7 7 7 6 6 6 7 6 6 7 5 7 8 8 8 8 9 8 8 8 7 7 8 8 7 7 8 8 7 8 6 7 7 7 7 7 6 6 5 5 4 4 4 3
6 7 7 6 6 7 6 7 6 8 7 7 6 6 7 6 8 8 9 9 9 9 9 8 8 8 8 9 8 8 8 8 7 7 7 7 7 8 8 7 7 7 7 6 6 5 5 5 6
5 7 6 6 6 6 7 7 6 7 8 6 6 6 7 7 8 8 8 8 8 8 9 9 9 8 8 9 8 8 8 8 8 8 8 8 8 8 8 8 8 7 7 8 8 8 7 7 6
7 6 6 6 7 7 7 6 7 7 6 6 5 4 6 7 8 8 8 7 8 8 9 9 9 9 8 8 8 8 8 8 8 8 9 8 8 9 9 9 9 8 8 8 8 8 7 7 7
7 6 6 6 7 7 7 8 7 6 5 5 5 7 6 7 7 7 7 6 7 9 9 10 9 9 9 9 9 9 9 9 9 9 9 9 9 10 10 10 9 9 9 10 10 9 9 8 7
6 7 7 6 7 7 8 7 8 6 5 5 5 7 7 6 6 6 7 7 8 9 9 9 10 9 9 9 9 9 9 9 9 9 10 10 10 10 11 10 10 10 10 10 10 10 10 9 8
7 9 7 7 7 8 8 9 8 6 6 7 7 7 6 6 6 6 6 7 8 9 9 10 10 9 10 10 9 9 9 10 10 10 10 11 11 11 11 11 11 11 11 11 11 10 10 10 9
8 8 10 7 7 8 8 10 7 6 7 8 7 6 7 7 7 6 6 7 7 9 10 10 10 10 10 10 10 10 10 10 10 11 11 11 12 12 12 12 12 11 11 11 11 11 11 11 10
8 10 9 8 7 8 9 10 7 6 7 8 7 6 6 7 7 6 6 7 7 9 10 10 10 11 10 10 10 10 10 11 11 11 11 12 12 12 12 12 12 12 12 12 12 12 12 12 11
10 10 9 9 8 9 9 10 8 7 7 7 7 7 6 6 7 7 7 6 7 9 10 10 10 11 10 10 11 11 11 11 11 12 12 12 13 13 13 13 13 12 13 12 12 13 12 12 11
8 9 10 9 7 9 10 10 9 7 7 7 7 7 7 6 5 7 7 7 8 9 10 11 11 11 11 11 12 12 12 12 12 12 12 13 13 13 13 13 13 13 13 13 13 13 13 12 12
9 10 10 8 8 10 10 11 9 8 8 7 8 7 7 6 7 8 8 8 9 10 10 11 11 11 11 11 11 11 12 12 12 12 13 13 13 13 14 14 14 14 14 14 13 13 14 13 12
10 11 10 10 8 10 11 12 10 9 8 8 8 8 8 7 7 9 9 10 10 11 11 11 11 11 11 11 12 13 13 14 14 14 13 13 13 13 14 14 14 14 14 14 14 13 14 15 13
11 8 9 10 11 13 11 15 11 10 9 9 9 8 8 8 8 9 10 11 11 11 10 11 11 12 11 12 13 14 14 15 14 13 13 13 13 14 14 14 14 15 14 14 14 14 14 14 15
10 10 10 10 11 12 12 14 12 13 12 11 10 8 7 7 8 9 10 11 11 11 11 11 11 12 12 12 13 13 14 13 13 14 14 14 14 14 15 15 15 15 15 14 14 15 15 14 15
11 11 12 12 12 16 13 13 14 12 12 10 9 8 7 8 8 9 10 10 10 10 11 11 12 13 12 13 13 13 13 14 14 15 15 15 14 15 15 15 15 16 16 15 15 15 15 15 15
11 11 13 15 16 16 11 14 12 10 10 10 10 8 8 8 8 9 10 11 11 11 11 12 12 13 13 13 14 14 14 14 15 15 15 15 16 16 16 16 16 16 16 16 16 16 16 15 15
12 11 13 18 16 15 15 16 13 10 9 9 9 9 9 8 8 9 10 11 11 11 12 12 13 13 13 13 14 14 14 14 15 15 16 16 17 16 16 16 17 17 16 16 16 16 16 16 15
12 14 10 13 15 16 15 13 10 10 10 10 10 10 9 10 9 9 10 11 11 12 13 13 13 13 14 14 14 15 15 15 16 16 17 17 17 17 17 17 17 17 17 17 17 17 17 16 16
13 12 15 14 19 18 16 15 14 12 11 11 11 10 9 9 9 9 10 11 11 12 12 13 13 14 14 14 15 16 16 16 16 17 18 18 18 18 18 18 18 18 18 18 18 18 17 18 17
15 15 14 14 13 16 18 16 12 11 10 10 9 9 8 8 9 9 10 10 11 12 12 13 13 13 14 15 15 16 17 17 17 18 18 18 18 18 19 19 19 19 19 19 19 19 19 19 19
12 13 13 16 16 15 15 16 11 10 10 10 10 9 8 7 8 8 9 11 12 12 12 12 13 13 14 15 16 17 17 18 19 19 19 19 19 19 19 19 20 20 20 20 20 21 20 20 20